Location: Ferchesar
(52.6477°N, 12.4298°E)
Time: 10:19:15
(UTC+01:00)

Tiros 1 despin weight - Pass Details

Date: 10 December 2021
Orbit: 592 x 641 km, 48.2° (Epoch: 19 January)

Event Time Altitude Azimuth Distance (km) Brightness Sun altitude
Rises 14:36:57 0° 269° (W) 2,838 ? 7.3°
Reaches altitude 10° 14:39:20 10° 262° (W) 1,930 ? 7.1°
Maximum altitude 14:43:29 41° 192° (SSW) 863 ? 6.7°
Drops below altitude 10° 14:47:37 10° 123° (ESE) 1,919 ? 6.4°
Sets 14:49:59 0° 116° (ESE) 2,820 ? 6.1°
